Torna al catalogo

STARLINK-3231

AttivoComunicazioniVLEO
NORAD 49744·PAYLOAD·🇺🇸 United States

Lanciato Dec 2, 2021 da Cape Canaveral Space Force Station

Loading…

Prossimi Passaggi (prossime 24 ore)

TLE

AggiornatoSource: CelesTrak SupGP

Epoca: Sep 14, 2026, 19:36 UTC

1 49744C 21115W   26257.81715278  .00022092  00000+0  71047-3 0  2572
2 49744  53.1610   6.2166 0001218  70.9133 241.5469 15.31688802    16

Traccia STARLINK-3231 in tempo reale con AllMySat

Download on the App Store